星链-6380 (STARLINK-6380 )

导读 | 豆包AI

STARLINK-6380是美国太空探索技术公司SpaceX星链星座的一员,由美国于2023年7月16日发射,属于星链星座低轨卫星组网的卫星之一。它主要服务于全球高速互联网接入,为偏远地区、航海航空等场景提供网络覆盖,延续星链低轨组网的部署节奏,推进全球卫星互联网覆盖网络构建。

基本信息
目录编号:
57344
目录名称:
STARLINK-6380
国际标识:
2023-099S
轨道中心:
EARTH
卫星名称:
星链-6380
卫星全名:
星链-6380 (STARLINK-6380 )
卫星状态:
在轨 (已飞行1019 天)
发射日期:
2023-07-16 UTC
国别 :
美国 (US)
星等 :
--
轨道信息
数据来源 国际轨道数据
星历时间: 2026-04-30T06:00:02+0800
7小时前
查看轨道信息
半长轴: 6861.219km
偏心率: 0.0001274
轨道倾角: 43.000°
近地点辐角 262.154°
升交点赤经 322.830°
平近点角 112.078°
近地点: 482.207km
远地点: 483.957km
周期: 94.267分钟
每日圈数: 15.275692
详细信息
固有亮度:
5
最大亮度:
2.5
卫星平台:
Starlink v1.5
覆盖范围:
全球
运营商:
太空探索技术公司
运营商所在国:
美国
制造商(研发单位):
太空探索技术公司
制造商所在国:
美国
使用方式:
暂无
卫星简介
星链(Starlink)计划是由太空探索技术公司(SpaceX)提出的一个巨型低轨卫星互联网星座项目,计划在2019年至2024年间在太空搭建由约1.2万颗卫星组成的“星链”网络,其中1584颗将部署在地球上空550千米处的近地轨道,并从2020年开始工作。该卫星仍在工作。
2D轨道图
3D轨道图
轨道高度分析图
轨道倾角分析图
轨道综合分析图
查看轨道综合分析图